Location: *
(42.3442°N, 9.2072°E)
Time: 16:26:55
(UTC+00:00)

Cosmos 676 Rocket - Pass Details

Date: 09 April 2020
Orbit: 755 x 784 km, 74.0° (Epoch: 04 June)

Event Time Altitude Azimuth Distance (km) Brightness Sun altitude
Rises 19:04:52 0° 186° (S) 3,243 7.1 -12.5°
Reaches altitude 10° 19:07:17 10° 182° (S) 2,316 6.3 -12.9°
Maximum altitude 19:12:24 56° 105° (ESE) 915 4.0 -13.8°
Drops below altitude 10° 19:17:32 10° 28° (NNE) 2,313 6.5 -14.7°
Sets 19:19:56 0° 25° (NNE) 3,239 7.3 -15.1°
